Date String (YYYY-MM-DD hh:mm:ss) UTC,Instrument flags,Ambient pressure (hPa),Sample flow (lpm),Bypass flow (lpm),Sample temperature (°C),Ambient temperature (°C),ASC tube jacket temperature (°C),LED temperature (°C),Box temperature (°C),Sample RH (%),Span deviation,Mass concentration (μg/m³),Mass concentration (μg/m³),Mass concentration (μg/m³)
DateTimeUTC,F1_M11,P_M11,Q1_M11,Q2_M11,T1_M11,T2_M11,T3_M11,T4_M11,T5_M11,U1_M11,ZSPAN_M11,X0_M11,X2_M11,X1_M11
2022-03-16 07:00:00,,0822.5,5.01,0.00,28.0,27.0,00.0,37.0,29.6,08.4,0000.0,0002.84,0001.14,0000.77
2022-03-16 07:01:00,,0822.5,4.99,0.00,27.9,27.0,00.0,37.0,29.6,08.3,0000.0,0002.87,0001.15,0000.77
2022-03-16 07:02:00,,0822.4,5.01,0.00,27.9,27.0,00.0,37.0,29.5,08.4,0000.0,0002.88,0001.16,0000.78
2022-03-16 07:03:00,,0822.5,4.99,0.00,27.9,26.9,00.0,37.0,29.5,08.4,0000.0,0002.87,0001.17,0000.78
2022-03-16 07:04:00,,0822.4,5.01,0.00,27.9,26.9,00.0,37.0,29.6,08.5,0000.0,0002.90,0001.18,0000.78
2022-03-16 07:05:00,,0822.4,4.99,0.00,27.9,26.9,00.0,37.0,29.6,08.3,0000.0,0002.91,0001.19,0000.79
2022-03-16 07:06:00,,0822.4,4.99,0.00,27.9,26.9,00.0,36.9,29.5,08.3,0000.0,0003.00,0001.21,0000.79
2022-03-16 07:07:00,,0822.4,5.00,0.00,27.9,26.8,00.0,36.9,29.5,08.3,0000.0,0002.61,0001.21,0000.80
2022-03-16 07:08:00,,0822.4,5.00,0.00,27.8,26.8,00.0,36.9,29.4,08.3,0000.0,0002.21,0001.20,0000.80
2022-03-16 07:09:00,,0822.5,5.00,0.00,27.8,26.8,00.0,36.9,29.4,08.2,0000.0,0002.30,0001.20,0000.80
2022-03-16 07:10:00,,0822.5,5.01,0.00,27.8,26.8,00.0,36.9,29.4,08.4,0000.0,0002.33,0001.24,0000.82
2022-03-16 07:11:00,,0822.5,5.00,0.00,27.8,26.8,00.0,36.9,29.4,08.5,0000.0,0002.34,0001.26,0000.84
2022-03-16 07:12:00,,0822.5,4.99,0.00,27.8,26.8,00.0,36.9,29.4,08.4,0000.0,0002.34,0001.25,0000.83
2022-03-16 07:13:00,,0822.4,5.00,0.00,27.8,26.8,00.0,36.9,29.5,08.3,0000.0,0002.38,0001.27,0000.84
2022-03-16 07:14:00,,0822.5,5.01,0.00,27.8,26.8,00.0,36.9,29.4,08.4,0000.0,0002.49,0001.31,0000.85
2022-03-16 07:15:00,,0822.5,4.99,0.00,27.8,26.7,00.0,36.9,29.4,08.5,0000.0,0002.46,0001.34,0000.86
2022-03-16 07:16:00,,0822.5,5.00,0.00,27.8,26.7,00.0,36.8,29.3,08.4,0000.0,0002.51,0001.36,0000.87
2022-03-16 07:17:00,,0822.5,5.01,0.00,27.7,26.7,00.0,36.8,29.3,08.4,0000.0,0002.56,0001.40,0000.87
2022-03-16 07:18:00,,0822.5,4.99,0.00,27.7,26.7,00.0,36.8,29.4,08.5,0000.0,0002.61,0001.41,0000.87
2022-03-16 07:19:00,,0822.4,5.01,0.00,27.7,26.7,00.0,36.8,29.4,08.4,0000.0,0002.71,0001.44,0000.88
2022-03-16 07:20:00,,0822.4,4.99,0.00,27.7,26.7,00.0,36.8,29.4,08.3,0000.0,0002.55,0001.41,0000.88
2022-03-16 07:21:00,,0822.4,4.99,0.00,27.7,26.7,00.0,36.8,29.4,08.4,0000.0,0002.48,0001.38,0000.88
2022-03-16 07:22:00,,0822.4,5.02,0.00,27.7,26.7,00.0,36.8,29.3,08.6,0000.0,0003.53,0001.40,0000.87
2022-03-16 07:23:00,,0822.4,4.99,0.00,27.7,26.7,00.0,36.8,29.3,08.4,0000.0,0003.65,0001.45,0000.89
2022-03-16 07:24:00,,0822.4,4.99,0.00,27.6,26.7,00.0,36.8,29.3,08.4,0000.0,0003.68,0001.46,0000.90
2022-03-16 07:25:00,,0822.3,5.01,0.00,27.6,26.6,00.0,36.8,29.3,08.4,0000.0,0004.27,0001.42,0000.90
2022-03-16 07:26:00,,0822.3,5.01,0.00,27.6,26.6,00.0,36.7,29.3,08.4,0000.0,0004.82,0001.39,0000.91
2022-03-16 07:27:00,,0822.4,4.99,0.00,27.6,26.6,00.0,36.7,29.3,08.4,0000.0,0004.90,0001.40,0000.93
2022-03-16 07:28:00,,0822.4,4.99,0.00,27.5,26.6,00.0,36.7,29.2,08.5,0000.0,0004.98,0001.42,0000.93
2022-03-16 07:29:00,,0822.4,5.00,0.00,27.5,26.5,00.0,36.7,29.2,08.4,0000.0,0004.95,0001.39,0000.92
2022-03-16 07:30:00,,0822.4,5.01,0.00,27.5,26.5,00.0,36.7,29.1,08.5,0000.0,0004.91,0001.37,0000.92
2022-03-16 07:31:00,,0822.4,4.99,0.00,27.5,26.5,00.0,36.6,29.1,08.5,0000.0,0004.97,0001.39,0000.92
2022-03-16 07:32:00,,0822.4,5.00,0.00,27.5,26.4,00.0,36.6,29.0,08.5,0000.0,0005.04,0001.42,0000.93
2022-03-16 07:33:00,,0822.4,5.01,0.00,27.5,26.4,00.0,36.6,29.1,08.6,0000.0,0004.12,0001.40,0000.94
2022-03-16 07:34:00,,0822.5,5.00,0.00,27.5,26.4,00.0,36.6,29.1,08.6,0000.0,0003.87,0001.38,0000.94
2022-03-16 07:35:00,,0822.3,4.99,0.00,27.4,26.4,00.0,36.6,29.0,08.6,0000.0,0003.76,0001.34,0000.94
2022-03-16 07:36:00,,0822.4,4.99,0.00,27.4,26.4,00.0,36.6,29.0,08.6,0000.0,0003.52,0001.37,0000.94
2022-03-16 07:37:00,,0822.3,5.01,0.00,27.4,26.4,00.0,36.6,29.0,08.5,0000.0,0002.80,0001.40,0000.94
2022-03-16 07:38:00,,0822.4,5.01,0.00,27.4,26.4,00.0,36.5,29.0,08.5,0000.0,0002.88,0001.44,0000.93
2022-03-16 07:39:00,,0822.4,4.99,0.00,27.4,26.4,00.0,36.5,29.0,08.8,0000.0,0002.87,0001.44,0000.94
2022-03-16 07:40:00,,0822.4,5.00,0.00,27.4,26.4,00.0,36.5,29.0,08.7,0000.0,0002.83,0001.44,0000.95
2022-03-16 07:41:00,,0822.4,5.01,0.00,27.4,26.4,00.0,36.5,29.0,08.6,0000.0,0002.93,0001.46,0000.95
2022-03-16 07:42:00,,0822.4,5.01,0.00,27.4,26.4,00.0,36.5,29.0,08.7,0000.0,0002.99,0001.50,0000.97
2022-03-16 07:43:00,,0822.3,4.99,0.00,27.4,26.4,00.0,36.5,29.0,08.5,0000.0,0003.24,0001.58,0000.98
2022-03-16 07:44:00,,0822.4,5.02,0.00,27.4,26.4,00.0,36.5,29.0,08.6,0000.0,0003.40,0001.65,0000.99
2022-03-16 07:45:00,,0822.3,5.01,0.00,27.4,26.3,00.0,36.4,28.9,08.6,0000.0,0003.46,0001.68,0000.99
2022-03-16 07:46:00,,0822.4,4.99,0.00,27.3,26.4,00.0,36.4,28.9,08.5,0000.0,0003.57,0001.72,0000.99
2022-03-16 07:47:00,,0822.3,5.01,0.00,27.3,26.3,00.0,36.4,29.0,08.5,0000.0,0003.58,0001.77,0001.00
2022-03-16 07:48:00,,0822.3,4.99,0.00,27.3,26.3,00.0,36.4,29.0,08.4,0000.0,0003.42,0001.78,0001.00
2022-03-16 07:49:00,,0822.3,4.99,0.00,27.3,26.3,00.0,36.4,29.0,08.4,0000.0,0003.28,0001.74,0000.99
2022-03-16 07:50:00,,0822.3,5.01,0.00,27.3,26.3,00.0,36.4,29.0,08.5,0000.0,0003.29,0001.71,0000.99
2022-03-16 07:51:00,,0822.3,5.01,0.00,27.3,26.2,00.0,36.4,29.0,08.6,0000.0,0003.32,0001.73,0000.98
2022-03-16 07:52:00,,0822.4,4.99,0.00,27.2,26.2,00.0,36.4,29.0,08.5,0000.0,0003.28,0001.76,0000.99
2022-03-16 07:53:00,,0822.4,4.99,0.00,27.2,26.2,00.0,36.3,29.0,08.4,0000.0,0003.19,0001.74,0000.99
2022-03-16 07:54:00,,0822.4,5.00,0.00,27.2,26.2,00.0,36.3,28.9,08.4,0000.0,0002.97,0001.66,0000.98
2022-03-16 07:55:00,,0822.4,5.02,0.00,27.2,26.1,00.0,36.3,28.9,08.4,0000.0,0002.72,0001.56,0000.97
2022-03-16 07:56:00,,0822.4,5.00,0.00,27.2,26.1,00.0,36.3,28.8,08.6,0000.0,0002.75,0001.58,0000.97
2022-03-16 07:57:00,,0822.4,5.00,0.00,27.1,26.1,00.0,36.3,28.8,08.6,0000.0,0002.89,0001.62,0000.98
2022-03-16 07:58:00,,0822.4,4.98,0.00,27.1,26.0,00.0,36.2,28.7,08.5,0000.0,0002.97,0001.62,0000.97
2022-03-16 07:59:00,,0822.4,4.99,0.00,27.1,26.0,00.0,36.2,28.7,08.5,0000.0,0002.99,0001.60,0000.97
